Wallops Island, VA

2:24 PM EDT on October 22, 2017 (GMT -0400)
Wallops Flight Facility

Weather History for KWAL - August, 2013

Change the Weather History Date:

Saturday, August 17, 2013

  Actual Average Record
Temperature  
Mean Temperature 73 °F 76 °F  
Max Temperature 81 °F 83 °F 95 °F (1997)
Min Temperature 65 °F 68 °F 57 °F (1979)
Degree Days  
Heating Degree Days 0    
Month to date heating degree days 0  
Since 1 June heating degree days 0  
Since 1 July heating degree days 0  
Cooling Degree Days 8    
Month to date cooling degree days 194  
Year to date cooling degree days 1103  
Since 1 June cooling degree days 972  
Growing Degree Days 22 (Base 50)    
Moisture  
Dew Point 60 °F    
Average Humidity 65    
Maximum Humidity 78    
Minimum Humidity 52    
Precipitation  
Precipitation T in 0.13 in 0.90 in (2003)
Month to date precipitation 0.57 2.47  
Year to date precipitation 28.19 25.67  
Sea Level Pressure  
Sea Level Pressure 30.21 in    
Wind  
Wind Speed 13 mph (ENE)    
Max Wind Speed 22 mph    
Max Gust Speed 26 mph    
Visibility 10 miles    
Events Rain    
T = Trace of Precipitation, MM = Missing Value Source: NWS Daily Summary

Daily Weather History Graph

Daily Weather History Graph

Search for Another Location

Airport or City:

Trip Planner

Search our weather history database for the weather conditions in past years. The results will help you decide how hot, cold, wet, or windy it might be!

Date:

Astronomy

Aug. 17, 2013 Rise Set
Actual Time 6:19 AM EDT 7:52 PM EDT
Civil Twilight 5:51 AM EDT 8:19 PM EDT
Nautical Twilight 5:17 AM EDT 8:53 PM EDT
Astronomical Twilight 4:42 AM EDT 9:28 PM EDT
Moon 5:03 PM EDT (8/17) 2:21 AM EDT (8/17)
Length of Visible Light 14h 28m
Length of Day
13h 33m
Waxing Gibbous, 84% of the Moon is Illuminated
Aug 17
Waxing Gibbous
Aug 20
Full
Aug 28
Last Quarter
Sep 5
New
Sep 12
First Quarter

Hourly Weather History & Observations

Time (EDT) Temp. Heat Index Dew Point Humidity Pressure Visibility Wind Dir Wind Speed Gust Speed Precip Events Conditions
12:54 AM 66.9 °F - 57.0 °F 70% 30.19 in 10.0 mi North 4.6 mph - N/A   Mostly Cloudy
1:54 AM 68.0 °F - 57.9 °F 70% 30.17 in 10.0 mi North 4.6 mph - N/A   Overcast
2:54 AM 66.0 °F - 57.0 °F 73% 30.16 in 10.0 mi North 6.9 mph - N/A   Clear
3:54 AM 64.9 °F - 57.0 °F 75% 30.17 in 10.0 mi North 6.9 mph - N/A   Clear
4:54 AM 66.0 °F - 57.9 °F 75% 30.18 in 10.0 mi North 8.1 mph - N/A   Overcast
5:54 AM 66.9 °F - 59.0 °F 76% 30.19 in 10.0 mi North 5.8 mph - N/A   Overcast
6:54 AM 69.1 °F - 60.1 °F 73% 30.21 in 10.0 mi NNE 5.8 mph - N/A   Overcast
7:54 AM 69.1 °F - 60.1 °F 73% 30.21 in 10.0 mi NNE 6.9 mph - N/A   Overcast
8:54 AM 73.9 °F - 59.0 °F 59% 30.22 in 10.0 mi East 18.4 mph - N/A   Overcast
9:54 AM 77.0 °F - 59.0 °F 54% 30.22 in 10.0 mi East 18.4 mph - N/A   Overcast
10:54 AM 79.0 °F - 59.0 °F 50% 30.24 in 10.0 mi ENE 18.4 mph - N/A   Overcast
11:54 AM 78.1 °F - 61.0 °F 56% 30.24 in 10.0 mi East 16.1 mph - N/A   Overcast
12:54 PM 78.1 °F - 61.0 °F 56% 30.23 in 10.0 mi East 18.4 mph - N/A   Overcast
1:04 PM 79.0 °F - 61.0 °F 54% 30.23 in 10.0 mi East 21.9 mph 26.5 mph N/A   Overcast
1:54 PM 79.0 °F - 61.0 °F 54% 30.23 in 10.0 mi ENE 18.4 mph - N/A   Overcast
2:22 PM 81.0 °F 81.9 °F 62.1 °F 52% 30.23 in 10.0 mi East 18.4 mph - N/A   Overcast
2:45 PM 79.0 °F - 62.1 °F 56% 30.23 in 10.0 mi East 18.4 mph - N/A   Overcast
2:54 PM 78.1 °F - 62.1 °F 58% 30.22 in 10.0 mi East 15.0 mph - N/A   Overcast
3:54 PM 75.9 °F - 62.1 °F 62% 30.21 in 10.0 mi East 17.3 mph - N/A   Overcast
4:54 PM 77.0 °F - 62.1 °F 60% 30.21 in 10.0 mi East 18.4 mph - N/A   Overcast
5:54 PM 75.9 °F - 61.0 °F 60% 30.21 in 10.0 mi ENE 15.0 mph - N/A   Overcast
6:54 PM 75.0 °F - 61.0 °F 62% 30.21 in 10.0 mi East 16.1 mph - N/A   Overcast
7:15 PM 75.0 °F - 62.1 °F 64% 30.22 in 10.0 mi East 15.0 mph - N/A   Overcast
7:54 PM 75.0 °F - 61.0 °F 62% 30.21 in 10.0 mi East 17.3 mph - N/A   Overcast
8:54 PM 75.0 °F - 61.0 °F 62% 30.21 in 10.0 mi East 13.8 mph - N/A   Overcast
9:54 PM 75.0 °F - 61.0 °F 62% 30.22 in 10.0 mi East 15.0 mph - N/A   Overcast
10:54 PM 75.0 °F - 61.0 °F 62% 30.21 in 10.0 mi East 11.5 mph - N/A   Mostly Cloudy
11:54 PM 73.9 °F - 62.1 °F 66% 30.20 in 10.0 mi East 12.7 mph - 0.00 in Rain Light Rain